Hourly Data Report for October 01, 2017

All times are specified in Local Standard Time (LST). Add 1 hour to adjust for Daylight Saving Time where and when it is observed.

GRAND MANAN SAR CS
NEW BRUNSWICK

44°42'43.400" N
66°48'06.900" W
78.20 m
8101925
71030
XGM

Download Data

Hourly Data (October 2017)
Hourly Data Report for October 1, 2017
Temp Definition
°C
Dew Point Temp Definition
°C
Rel Hum Definition
%
Wind Dir Definition
10's deg

Wind Spd Definition
km/h
Visibility Definition
km
Stn Press Definition
kPa
Hmdx Definition


Wind Chill Definition


Weather Definition


TIME
00:00 -1.8 -1.9 99 30 4   101.65   -3 LegendNANA
01:00 -2.5 -2.6 100 30 4   101.64   -4 LegendNANA
02:00 -2.4 -2.5 100 31 4   101.64   -4 LegendNANA
03:00 -2.6 -2.6 100 30 4   101.61   -4 LegendNANA
04:00 -2.0 -2.0 100 30 5   101.58   -4 LegendNANA
05:00 -2.2 -2.2 100 29 4   101.56   -4 LegendNANA
06:00 -1.8 -1.8 100 28 6   101.55   -4 LegendNANA
07:00 -0.2 -0.2 100 30 6   101.56   -2 LegendNANA
08:00 6.5 5.2 91 30 8   101.59     LegendNANA
09:00 10.4 3.7 63 31 7   101.58     LegendNANA
10:00 11.6 3.7 58 29 13   101.56     LegendNANA
11:00 13.1 3.5 52 24 10   101.51     LegendNANA
12:00 15.1 3.4 45 22 11   101.42     LegendNANA
13:00 15.6 3.3 44 25 10   101.35     LegendNANA
14:00 15.3 4.3 48 22 15   101.26     LegendNANA
15:00 14.6 4.7 51 24 16   101.22     LegendNANA
16:00 13.9 5.8 58 23 16   101.17     LegendNANA
17:00 12.7 6.6 66 24 18   101.13     LegendNANA
18:00 11.5 7.7 77 24 15   101.12     LegendNANA
19:00 11.3 7.4 76 25 14   101.16     LegendNANA
20:00 11.1 8.7 85 24 11   101.22     LegendNANA
21:00 10.9 8.7 86 25 8   101.24     LegendNANA
22:00 10.2 8.7 91 27 5   101.26     LegendNANA
23:00 9.4 8.0 91 31 4   101.26     LegendNANA

Notes on Data Quality.

Legend

  • E = Estimated
  • M = Missing
  • NA = Not Available
  • ‡ = Partner data that is not subject to review by the National Climate Archives
Date modified: